Location: Casone le Fosse
(44.6547°N, 12.1103°E)
Time: 12:08:54
(UTC+00:00)

CZ-4 R/B - Pass Details

Date: 29 October 2020
Orbit: 532 x 598 km, 97.7° (Epoch: 28 November)

Event Time Altitude Azimuth Distance (km) Brightness Sun altitude
Rises 17:22:46 0° 155° (SSE) 2,697 4.6 -14.5°
Reaches altitude 10° 17:24:55 10° 150° (SSE) 1,801 3.7 -14.9°
Maximum altitude 17:28:42 54° 73° (ENE) 662 1.3 -15.5°
Drops below altitude 10° 17:32:28 10° 356° (N) 1,796 3.9 -16.2°
Sets 17:34:37 0° 352° (N) 2,689 4.9 -16.6°
